Siga o Apolo11 no Facebook   Siga o Apolo11 no Twiiter
Ciência, Espaço e Tecnologia




Elementos Keplerianos formato Two Line

Para que um programa de rastreio possa saber a localização exata de qualquer satélite no espaço e assim poder rastreá-lo corretamente, é necessário que ele seja carregado com algumas informações.

Estas informações são chamadas de Elementos Orbitais ou Elementos Keplerianos e consistem em 2 linhas com dezenas de números. Esses números nada mais são que os parâmetros orbitais do satélite, tais como altitude, atitude, excentricidade da órbita, número de órbitas por dia, etc.

Com base nestas informações o programa é capaz de determinar com bastante exatidão a posição de qualquer satélite no espaço e nos informar em qual horário este estará dentro do alcance de nossa estação. Para que isso seja feito com precisão é necessário que os dados estejam sempre bem atualizadas.

Devido aos parâmetros orbitais serem descritos em 2 linhas, estes formato é também conhecido internacionalmente por 2line (leia-se Two Line”).

Para atualizar seu programa de rastreio basta copiar os dados disponibilizados e fornece-los ao programa. Nossos elementos orbitais são atualizados diariamente.

NOAATodos os satélites ambientais da série NOAA
30 DiasSatélites lançados nos últimos 30 dias
ISSSatélites e foguetes relacionados à Estação Espacial Internacional
HAMSatélites construídos por radiomadores
CUBESatélites tipo cubo, com 10 centímetros de lado
METEOSatélites voltados à previsão do tempo
EDUSatélites construídos e operados por universidades
VIS100 satélites mais brilhantes que podem ser vistos a olho nú



Satélites série NOAA
NOAA 1 [-]              
1 04793U 70106A   23080.89799431 -.00000027  00000+0  10499-3 0  9995
2 04793 101.5136 142.2859 0032055 141.7719  31.8235 12.54013181392369
NOAA 2 (ITOS-D) [-]     
1 06235U 72082A   23080.74556247 -.00000031  00000+0  98122-4 0  9998
2 06235 101.9872  70.0351 0003692 265.1662 268.3591 12.53159396306704
NOAA 3 [-]              
1 06920U 73086A   23080.84128730 -.00000040  00000+0  42825-4 0  9996
2 06920 102.2426  68.5346 0006680 137.5239 284.4955 12.40354674235180
NOAA 4 [-]              
1 07529U 74089A   23080.93669653 -.00000048  00000+0 -11141-4 0  9996
2 07529 101.9506  66.7465 0008652 294.7197 121.5788 12.53166968211307
NOAA 5 [-]              
1 09057U 76077A   23080.86240639 -.00000031  00000+0  10547-3 0  9993
2 09057 102.1446  51.3255 0009847 349.9519  64.8226 12.37781914108066
TIROS N [-]             
1 11060U 78096A   23080.85076213  .00000286  00000+0  15873-3 0  9995
2 11060  98.5952 131.6872 0011510  67.9335 292.3063 14.18519872510936
NOAA 6 [-]              
1 11416U 79057A   23080.92870571  .00000502  00000+0  19563-3 0  9996
2 11416  98.6578  97.1435 0010847 154.0751 206.0978 14.33975723281287
NOAA 7 [-]              
1 12553U 81059A   23080.16808963  .00000102  00000+0  72792-4 0  9996
2 12553  98.9585 132.4608 0012246  52.2957 307.9326 14.17391417156999
NOAA 8 [-]              
1 13923U 83022A   23080.93899740  .00000297  00000+0  13494-3 0  9996
2 13923  98.7104  75.7303 0016081 116.2489 244.0347 14.28937501 82038
NOAA 9 [-]              
1 15427U 84123A   23080.88691516  .00000248  00000+0  14811-3 0  9995
2 15427  99.0833  63.1546 0015869  98.7354 317.6060 14.16319184975881
NOAA 10 [-]             
1 16969U 86073A   23080.94237944  .00000273  00000+0  12695-3 0  9997
2 16969  98.5988  67.4089 0011425 215.3012 199.2473 14.28322241900442
NOAA 11 [-]             
1 19531U 88089A   23080.81903320  .00000139  00000+0  92270-4 0  9997
2 19531  98.4577  60.0897 0012311  98.6468 261.6102 14.15375460780054
NOAA 12 [-]             
1 21263U 91032A   23080.92397140  .00000213  00000+0  10698-3 0  9999
2 21263  98.5305  78.1638 0012534 245.5819 114.4054 14.26087474656276
NOAA 13 [-]             
1 22739U 93050A   23080.83730983  .00000271  00000+0  16763-3 0  9999
2 22739  98.5438  52.3288 0008331 270.5167  89.5051 14.12951425526222
NOAA 14 [-]             
1 23455U 94089A   23080.82542363  .00000107  00000+0  77537-4 0  9995
2 23455  98.4318  97.2545 0008415 243.6502 116.3809 14.14254227455910
NOAA 15 [B]             
1 25338U 98030A   23081.16947770  .00000287  00000+0  13763-3 0  9995
2 25338  98.6165 111.6752 0010026 201.8244 158.2510 14.26272450292852
NOAA 16 [-]             
1 26536U 00055A   23080.83583836  .00000153  00000+0  10365-3 0  9995
2 26536  98.5953 134.6100 0011639  93.8088 266.4416 14.13404797456536
NOAA 17 [-]             
1 27453U 02032A   23080.82040293  .00000332  00000+0  15981-3 0  9993
2 27453  98.7073  28.3291 0011660 180.0503 180.0677 14.25254220 78363
NOAA 18 [B]             
1 28654U 05018A   23081.17679890  .00000309  00000+0  18989-3 0  9999
2 28654  98.9153 155.9735 0013266 265.1268  94.8389 14.12892738919280
NOAA 19 [+]             
1 33591U 09005A   23081.21048691  .00000280  00000+0  17587-3 0  9990
2 33591  99.1120 125.7040 0014755 125.9566 234.2976 14.12714592727667
SUOMI NPP [+]           
1 37849U 11061A   23081.24613587  .00000174  00000+0  10362-3 0  9996
2 37849  98.7620  21.3205 0001090 104.8734 229.9045 14.19527437590609
NOAA 20 [+]             
1 43013U 17073A   23081.14414588  .00000171  00000+0  10192-3 0  9992
2 43013  98.7458  20.7233 0001206  62.4903 297.6396 14.19525819276624
NOAA 21 (JPSS-2) [+]    
1 54234U 22150A   23080.87930031  .00000197  00000+0  11403-3 0  9990
2 54234  98.7096  20.2302 0001070  76.9011 283.2285 14.19565842 18666


IMAGENS DE SATÉLITES !    Clique e conheça nosso Vídeo Workshop de sensoriamento remoto e imagens meteorológicas.
Apolo11.com - Todos os direitos reservados - 2001 - 2023
Política de Privacidade

"Prefiro ser um oportunista e flutuar do que ir ao fundo com meus princípios amarrados até o pescoço" - Stanley Baldwin